Theta_e
307 300 297 298 301 303 304 304 303 303 304 303 300 298 298 296 295 298 300 299 298 294 294 295 295 295 296 297 298 299 298 296 294 295 296 297 297 298 297 299 302 303 304 308 311 315 318 321 323 325 325 325 325 326 326 325 324 325 326 323 321 321 321 322 321 321 321 320 320 320 321 321 322 322 323 323 323 323 323 323 323 323 323 323 323 323
305 298 298 301 303 305 305 305 304 303 304 302 300 298 297 296 296 298 300 300 297 295 294 295 294 295 296 298 298 297 297 298 299 297 296 296 297 298 298 298 299 302 304 305 307 310 313 318 321 323 325 323 323 324 325 325 325 325 326 325 324 322 321 322 322 321 321 322 322 321 321 322 322 321 321 322 323 323 323 323 323 323 323 323 323 322
297 295 299 303 306 306 305 305 305 303 301 302 299 297 295 295 297 299 294 295 298 295 294 292 293 295 297 298 299 298 299 300 301 301 300 298 298 298 299 299 299 299 302 304 307 309 312 315 319 322 323 324 325 325 325 326 325 325 325 325 325 324 323 322 322 322 321 322 323 322 321 322 320 321 323 323 322 322 322 322 323 323 323 324 323 323
293 297 301 303 304 304 303 304 304 303 302 300 299 297 295 296 297 292 294 292 296 296 291 289 290 293 294 296 298 300 300 301 302 302 301 301 300 300 300 301 301 300 301 302 305 307 308 312 316 320 321 323 324 324 324 325 325 325 325 325 326 325 324 323 323 320 322 322 323 323 321 321 322 320 319 320 318 321 321 322 323 323 324 324 324 323
296 300 304 303 303 303 301 302 302 300 298 300 301 299 297 296 297 297 294 291 291 294 292 291 291 294 293 294 296 298 298 299 302 301 302 301 301 302 303 302 302 302 302 302 303 305 306 309 313 317 321 322 322 323 324 324 325 326 325 326 326 326 325 325 323 322 322 321 319 319 317 316 318 317 318 319 320 321 321 322 322 323 323 324 324 324
298 302 305 302 301 302 301 299 300 300 297 299 301 302 300 298 297 297 292 292 290 290 293 293 284 286 289 293 297 299 297 297 298 298 300 301 301 300 300 301 302 302 303 303 304 305 306 308 312 315 318 320 322 323 324 325 325 326 326 326 325 326 326 326 325 324 323 322 321 320 319 319 319 320 320 320 321 321 321 322 323 323 323 323 324 324
300 304 303 300 300 300 300 299 301 301 297 296 299 304 304 301 295 292 290 291 284 285 289 292 289 285 287 290 291 293 294 296 297 297 299 300 300 300 301 302 302 302 302 301 302 303 305 306 310 314 316 319 321 323 324 324 325 325 325 325 326 326 326 326 326 325 323 324 323 322 321 321 320 320 321 323 323 323 324 323 322 323 323 324 324 323
302 302 302 301 300 299 298 297 301 302 298 295 302 304 304 300 295 292 292 293 285 289 290 290 289 286 288 293 294 292 292 294 295 297 297 299 300 301 301 301 302 303 303 303 301 301 303 305 308 312 316 318 321 323 323 324 324 324 325 325 325 326 325 326 326 325 325 324 324 323 322 322 322 321 321 322 323 322 321 323 323 323 323 324 324 324
302 299 300 299 299 298 297 300 302 303 299 298 302 305 303 301 298 295 294 290 289 289 286 286 287 286 284 287 288 290 292 294 295 297 298 299 299 300 301 302 302 303 304 303 303 301 301 303 306 310 314 318 320 321 322 323 324 324 325 324 325 325 324 325 325 325 325 324 325 324 324 322 322 323 322 318 318 321 320 322 323 323 324 324 324 325
301 303 303 302 299 297 300 301 303 304 299 298 302 303 302 299 297 296 291 291 288 287 288 285 287 286 288 289 290 290 290 293 297 298 299 300 300 300 301 302 303 303 302 302 304 304 302 302 304 308 313 316 319 321 321 323 323 324 324 323 323 324 324 324 325 324 324 324 323 324 324 323 323 322 321 318 319 319 319 321 322 323 323 324 324 325
302 305 306 303 300 301 300 301 304 304 301 300 301 298 295 293 290 288 288 287 288 286 289 289 287 288 285 291 293 291 294 298 297 296 297 298 299 301 301 302 304 303 302 301 302 303 304 303 302 304 309 314 317 318 319 320 321 322 322 322 322 324 325 323 324 324 324 324 324 324 324 323 323 322 321 319 319 318 318 320 321 321 322 323 325 326
300 301 302 302 307 303 304 298 298 303 299 300 292 293 294 289 291 288 286 287 286 286 288 287 287 289 285 285 289 296 295 293 297 297 296 295 297 299 299 300 301 302 302 301 300 301 302 300 299 299 304 308 312 314 315 316 317 318 320 321 321 322 322 323 323 323 324 324 324 324 324 323 323 322 321 320 320 319 319 320 320 320 321 322 325 326
295 298 300 301 303 305 301 299 295 298 298 296 294 295 291 284 287 284 285 283 285 286 285 284 285 284 287 289 290 292 295 297 296 297 297 296 296 296 297 298 300 300 299 299 299 299 299 300 300 299 301 303 306 312 313 315 315 317 318 319 319 320 321 322 322 322 323 323 323 323 323 323 323 322 322 321 320 320 320 320 319 319 320 322 323 325
292 299 299 297 300 305 304 296 291 291 295 295 294 293 290 283 282 283 282 283 282 284 284 284 285 285 288 289 296 298 301 301 298 297 297 297 297 298 298 297 297 297 298 299 299 298 299 300 300 300 300 301 305 308 312 313 314 316 317 318 319 320 320 321 321 322 321 322 323 323 323 323 322 321 322 322 321 320 320 320 320 320 320 320 323 324
286 286 294 298 294 303 303 302 299 297 297 296 299 297 292 290 284 283 282 282 284 283 280 282 284 282 284 285 290 298 300 295 294 295 295 295 296 296 293 292 293 293 294 296 297 298 298 299 299 300 299 299 302 304 308 311 314 315 316 317 317 319 319 319 320 321 321 322 322 322 323 323 322 322 321 321 321 320 319 319 319 319 319 320 320 322
291 290 297 302 297 304 300 303 301 296 294 295 295 297 291 290 287 284 276 281 275 276 276 277 285 282 288 289 292 293 292 293 293 292 292 294 294 291 292 294 294 294 296 295 295 296 296 297 296 297 297 298 299 301 305 308 311 313 316 316 317 318 319 318 318 320 321 322 322 321 321 322 321 320 320 320 319 318 318 318 319 319 319 320 320 319
292 289 297 300 297 302 302 298 297 302 289 292 296 291 294 293 287 280 278 278 275 273 277 277 281 284 285 292 296 297 296 295 293 292 289 292 294 291 293 293 293 294 294 294 295 296 296 293 294 296 297 297 297 298 302 306 309 312 314 314 315 316 314 314 315 318 319 320 319 319 320 320 319 319 319 320 318 317 317 318 318 319 319 318 319 319
290 290 297 298 293 301 304 301 298 302 297 295 290 294 294 295 291 284 277 271 272 273 275 279 282 281 281 283 287 293 294 296 294 291 291 289 290 292 294 293 294 294 294 294 294 294 294 295 295 295 295 296 298 298 300 303 306 309 310 311 312 310 311 311 313 315 316 316 317 318 318 318 319 319 319 319 319 316 316 316 316 315 316 316 317 318
296 286 286 290 297 294 297 301 294 296 293 297 295 298 296 286 287 283 279 277 271 272 271 273 279 279 283 286 286 288 291 294 295 292 288 290 289 292 294 294 293 292 292 293 293 293 293 294 296 296 296 295 295 295 296 296 297 298 299 302 308 310 312 311 311 311 312 313 316 316 315 315 316 317 318 317 315 314 315 315 315 315 316 315 314 314
297 286 288 291 294 293 298 298 288 293 292 293 296 295 293 289 291 288 287 278 278 272 271 273 274 280 285 285 290 292 290 292 293 291 291 292 291 292 294 295 295 293 294 293 293 293 294 295 295 296 296 296 296 295 294 295 295 297 299 299 301 301 300 301 305 305 309 309 311 312 310 311 314 314 314 313 313 313 314 314 314 314 311 313 311 313
291 291 285 289 292 295 290 294 292 294 289 290 293 291 290 288 289 290 285 280 280 271 269 271 273 280 281 287 292 294 296 295 294 294 294 293 292 292 294 296 295 293 293 293 294 294 295 295 295 293 292 293 293 292 293 296 297 297 296 297 298 301 300 301 302 303 306 305 306 306 308 308 307 308 308 307 309 311 311 311 309 311 311 305 309 309
287 290 287 287 288 290 293 298 298 297 296 294 294 291 293 289 286 286 283 283 274 277 275 272 278 283 280 290 295 295 297 297 296 294 294 292 293 293 293 293 293 292 292 293 294 294 294 294 293 291 292 292 292 292 293 295 294 294 296 298 297 297 299 299 299 301 302 301 303 303 304 303 301 305 304 306 305 307 306 305 305 305 301 304 307 305
292 289 289 286 288 292 295 294 290 298 299 295 296 289 295 290 289 285 282 282 280 286 276 273 273 282 286 288 293 294 294 294 294 292 294 292 291 292 293 291 290 292 293 294 294 294 294 293 293 292 293 294 295 295 292 292 296 297 295 294 294 297 296 297 298 298 298 299 300 300 299 299 301 302 301 303 301 302 301 300 298 299 303 302 300 299
293 287 286 285 287 289 291 291 292 292 296 292 291 290 293 290 292 290 288 285 285 281 281 280 277 281 286 285 287 289 289 288 287 289 294 294 289 290 290 290 290 290 291 291 291 291 291 291 291 291 292 295 294 293 294 295 294 294 294 295 294 295 295 294 296 296 297 297 298 297 295 298 295 296 298 301 299 299 295 296 297 295 298 299 298 299
291 289 290 284 284 285 287 291 290 290 293 292 291 291 295 295 293 285 283 281 283 286 285 284 278 285 287 283 284 284 285 289 290 290 288 292 289 290 290 290 291 291 292 292 292 292 290 290 292 295 296 296 295 292 292 294 295 295 294 292 294 295 294 294 293 295 295 295 295 291 294 293 292 297 296 299 296 296 293 295 295 295 299 298 298 301
293 291 289 283 278 277 278 279 283 285 289 292 293 292 294 294 292 289 287 281 282 285 286 282 283 286 288 288 289 288 285 289 287 287 288 288 289 291 289 291 292 292 294 293 291 290 293 294 294 292 292 295 294 294 294 294 294 293 292 293 291 293 291 291 288 293 293 291 295 294 293 294 291 296 297 297 296 296 295 295 296 297 296 298 305 299
287 291 292 290 287 285 287 290 295 295 293 290 291 292 292 294 294 293 290 287 283 285 283 287 288 288 286 288 287 288 286 287 290 290 290 291 290 289 288 290 292 293 293 293 293 293 291 291 293 295 295 294 292 291 292 292 293 291 291 292 291 291 291 291 291 291 293 291 294 294 295 293 294 294 293 293 294 293 294 294 292 295 297 294 297 298
287 289 291 291 291 292 292 291 294 295 292 293 292 291 293 292 293 291 288 286 291 285 276 281 287 287 289 287 286 287 287 286 286 287 288 287 288 290 291 289 291 290 289 289 290 291 293 294 293 292 292 290 293 291 290 290 291 293 293 294 293 291 291 292 293 293 294 293 295 295 296 295 294 294 294 294 294 295 295 295 295 296 295 293 296 296
291 289 292 292 290 292 291 294 295 294 294 294 293 293 291 292 291 289 290 292 290 285 284 289 289 287 290 291 291 292 290 290 290 291 290 289 289 289 289 290 291 292 291 290 292 292 293 293 294 294 292 291 289 291 290 290 290 290 291 292 292 292 293 292 294 295 296 296 296 296 296 294 293 294 295 294 295 295 296 296 296 295 293 292 294 293
294 290 291 291 290 290 290 292 293 292 292 292 292 293 293 292 291 292 292 293 292 289 291 291 291 290 292 293 294 296 291 290 288 287 287 289 289 289 289 289 290 292 292 293 293 293 294 294 293 293 292 290 291 291 290 291 292 293 293 294 293 293 292 293 296 298 298 298 298 296 295 296 295 296 294 295 295 295 293 293 293 293 292 292 292 291
294 289 293 290 288 286 289 292 292 292 291 289 292 293 293 293 292 293 293 293 293 292 293 293 291 291 296 297 293 291 292 289 289 288 288 288 288 288 289 291 292 292 293 293 293 293 293 294 293 290 291 292 292 292 293 294 294 293 293 294 293 293 293 295 297 298 297 298 297 296 295 296 296 295 295 295 295 293 292 292 291 291 291 291 291 292
294 289 292 289 287 285 287 289 289 291 291 289 289 290 291 291 289 291 290 294 292 290 292 292 290 290 296 298 294 292 293 294 293 292 291 290 289 288 289 291 292 293 293 293 293 293 293 293 293 292 293 293 293 292 293 294 294 293 294 294 294 294 294 295 297 298 297 296 295 295 296 295 295 294 294 293 293 292 291 290 289 290 290 289 289 289
292 289 287 288 286 286 287 288 288 288 288 286 286 290 292 293 293 294 294 295 295 295 291 288 290 296 297 294 295 292 293 293 294 295 296 295 291 290 291 292 293 293 293 293 293 292 293 294 294 294 294 293 293 294 295 296 295 295 295 295 295 293 295 296 297 297 296 295 295 295 296 295 294 293 293 292 292 291 290 289 289 289 289 289 289 288
293 290 289 290 286 286 287 286 287 285 279 281 293 296 295 292 293 291 291 293 295 296 294 296 296 298 291 294 296 294 292 295 296 297 298 299 298 292 290 292 293 293 293 292 292 293 293 293 292 293 294 294 295 296 297 296 297 297 295 292 290 293 295 296 296 296 295 295 295 295 295 294 293 293 292 291 290 289 289 289 290 289 289 288 287 288
290 290 289 289 287 286 286 286 283 278 280 294 297 297 297 297 296 294 294 295 295 296 296 296 296 297 297 295 293 294 293 295 296 297 297 297 298 298 296 293 293 293 294 294 292 291 291 292 291 291 290 291 294 294 291 293 294 291 291 292 292 292 293 294 295 295 295 294 295 294 294 294 293 292 291 290 290 289 289 289 289 288 288 288 289 289
290 290 290 288 287 285 284 284 277 279 289 294 295 297 298 297 296 294 292 295 296 296 296 295 297 298 298 294 291 292 292 294 293 293 296 296 295 297 295 295 295 294 293 294 293 293 293 292 291 292 292 293 293 293 293 295 294 292 292 290 292 291 292 293 294 295 294 294 294 294 294 293 293 292 291 290 289 289 289 289 289 289 287 287 287 287
289 292 290 286 290 283 283 284 284 289 288 289 291 293 294 292 292 291 287 291 296 297 297 296 297 298 298 298 292 291 288 290 290 295 296 293 292 292 294 296 296 296 295 295 294 294 295 295 293 293 293 291 292 294 294 294 292 293 290 290 291 291 291 291 292 293 293 293 293 293 293 293 293 292 291 290 289 289 289 289 288 288 288 288 287 287
287 286 289 289 286 289 285 282 284 283 281 285 293 297 299 299 299 297 293 290 295 297 298 297 297 298 298 298 292 290 291 291 292 296 295 291 293 293 291 293 294 295 295 295 294 294 295 295 291 291 292 290 290 293 294 290 291 292 291 291 290 290 290 290 292 292 292 292 292 293 293 293 293 292 290 289 289 289 289 289 289 288 288 289 288 288
287 287 284 287 287 287 285 283 282 281 285 292 293 295 298 298 296 295 289 287 295 296 298 298 297 298 297 296 291 290 290 290 292 294 293 295 292 292 294 294 294 295 295 295 295 294 294 293 291 291 290 290 290 291 291 291 290 291 291 291 290 290 290 291 292 292 291 292 292 292 293 293 292 291 290 289 289 290 289 288 289 288 288 289 289 288
285 284 285 284 285 286 286 284 283 286 287 290 293 295 295 297 299 294 283 284 296 297 298 298 298 298 298 296 293 293 293 291 293 294 295 296 297 297 297 297 296 294 295 295 294 294 295 292 289 288 288 289 292 292 291 291 291 291 292 291 290 289 291 292 293 293 291 290 290 291 292 292 291 290 290 289 289 289 289 288 288 288 288 287 288 287
282 283 284 281 285 286 286 285 286 286 289 289 294 294 296 299 296 286 281 290 295 298 298 298 298 299 298 296 294 293 296 299 298 294 294 294 296 298 299 300 301 300 299 297 297 295 293 292 291 292 291 292 293 293 291 291 292 291 291 291 289 290 292 294 292 289 289 289 290 291 291 291 291 290 289 289 289 289 288 288 288 287 287 287 287 287
282 283 283 285 282 283 286 286 285 287 288 289 291 296 297 294 286 285 294 292 293 293 296 297 297 297 297 297 295 296 299 299 299 292 290 290 295 297 298 298 298 298 298 297 296 295 292 290 289 290 290 291 292 291 291 292 292 292 292 290 290 291 293 291 289 288 288 289 290 290 290 290 290 290 290 289 289 288 288 288 288 287 287 288 287 287
282 282 279 281 284 285 283 284 284 282 288 292 293 291 296 290 288 292 291 288 287 291 292 294 296 296 296 296 296 297 298 297 295 295 293 292 293 296 297 296 295 295 296 295 295 295 292 290 290 290 290 291 290 290 290 291 291 291 291 291 291 293 292 288 288 288 288 289 289 289 289 289 289 289 289 289 289 288 288 287 287 287 287 287 287 287
287 281 282 283 285 280 282 282 283 286 288 290 293 289 289 289 290 288 289 289 288 288 290 292 292 294 295 296 296 296 297 297 297 296 296 294 292 291 292 293 293 294 295 296 297 299 297 293 292 291 288 288 288 288 288 290 291 290 290 292 293 292 287 287 287 287 287 288 288 288 288 289 289 289 289 289 288 288 288 287 287 287 287 287 287 287
286 283 286 283 286 284 283 285 289 289 289 292 293 292 292 292 291 289 290 291 290 290 285 289 290 290 293 297 297 297 296 296 297 298 296 295 293 292 293 294 294 293 294 295 295 293 290 290 289 289 288 287 286 287 288 289 291 290 290 293 292 289 288 287 287 287 287 287 288 288 288 288 289 289 288 288 288 288 288 287 287 287 287 287 287 287
289 290 288 286 284 288 290 291 291 290 290 291 293 294 295 295 290 289 291 292 290 290 286 291 288 286 288 289 292 290 293 296 295 295 292 293 293 293 293 293 293 292 290 290 290 289 289 287 287 287 289 287 287 288 288 289 290 290 291 292 290 288 288 287 287 287 287 287 287 288 288 288 288 288 288 288 288 289 289 288 287 288 287 287 287 287
286 288 287 284 285 285 280 289 289 290 291 292 293 295 294 292 293 292 290 290 289 290 287 286 287 288 287 287 291 293 292 291 289 292 291 291 291 291 291 292 292 292 291 291 289 287 289 289 290 289 288 289 287 287 288 288 289 290 291 289 287 287 287 287 287 287 287 287 287 288 288 288 288 288 288 288 288 288 288 288 288 288 287 287 287 287
282 287 286 285 286 284 284 288 290 292 292 293 293 293 294 296 295 291 288 287 289 287 286 287 287 289 286 287 289 289 292 290 288 290 290 290 292 292 291 291 292 292 292 290 287 287 287 288 290 290 290 289 289 287 287 288 288 289 287 285 286 286 287 287 287 287 287 287 287 288 288 288 286 287 288 288 288 288 288 288 288 288 288 288 288 287
285 287 282 285 285 287 288 289 288 289 290 291 289 288 291 293 294 295 293 292 290 290 290 288 286 288 287 289 287 288 288 290 289 290 291 291 289 289 289 290 290 290 291 290 289 287 289 289 289 290 290 290 290 288 287 287 287 285 285 285 286 287 287 287 286 286 287 287 287 287 288 288 287 288 288 288 288 288 288 288 288 288 288 287 288 288
286 283 285 285 283 283 284 286 288 285 286 288 289 292 293 293 293 293 294 293 293 292 292 291 292 286 285 286 286 286 288 290 289 287 288 290 290 290 288 287 287 287 289 289 286 283 285 286 288 289 289 289 287 286 286 285 284 283 284 285 286 287 287 286 286 286 286 287 287 287 287 288 287 288 288 288 288 287 286 284 287 287 288 287 286 287
284 285 286 284 284 283 287 288 290 292 291 291 289 290 292 292 291 291 292 292 292 291 291 291 290 292 293 292 288 286 287 289 290 290 289 290 292 291 288 288 288 287 287 285 283 284 284 286 285 285 286 287 281 282 283 283 282 282 283 285 286 287 287 286 286 286 287 286 287 287 287 287 287 287 287 287 287 287 286 284 283 285 286 286 285 285
Wind_Speed
7 12 13 18 18 13 9 10 8 3 8 5 5 7 11 6 4 3 3 3 8 4 12 14 13 13 15 13 13 10 5 4 5 8 8 9 9 10 10 11 12 12 15 13 13 12 14 15 14 13 11 11 11 12 12 12 13 14 14 12 14 11 10 10 10 9 10 10 8 8 10 11 9 10 9 9 9 9 9 9 9 8 8 8 8 9
8 12 18 19 12 13 12 6 6 3 4 8 8 8 10 6 9 4 5 3 5 6 7 9 8 13 15 13 11 6 3 9 10 10 11 11 10 10 11 12 12 14 7 5 6 8 7 9 10 10 10 11 13 13 14 15 17 15 12 13 13 10 12 13 13 11 11 11 11 11 12 10 9 9 9 10 9 9 8 8 9 9 9 10 9 9
12 19 22 14 9 8 9 9 9 9 5 2 5 7 5 7 2 5 2 1 6 5 8 1 8 14 14 14 11 7 9 8 9 12 14 13 13 11 11 11 12 8 10 8 11 9 10 12 12 12 12 13 16 16 16 16 14 12 13 13 12 12 12 12 12 11 12 11 10 11 8 10 7 6 7 7 6 6 8 8 9 10 10 11 11 10
14 20 9 11 9 11 7 8 8 7 3 3 2 4 10 4 7 5 3 0 4 7 1 3 4 9 8 9 14 12 9 9 11 12 14 13 14 14 14 14 13 11 11 11 13 13 12 12 12 11 12 13 13 12 12 13 15 13 13 13 13 13 12 11 13 13 12 11 9 8 6 6 8 6 5 6 6 7 8 11 11 10 11 11 11 10
13 3 13 12 10 11 12 11 11 8 10 7 6 4 3 5 5 5 3 0 1 1 1 1 6 9 7 9 10 9 8 9 13 9 11 12 11 12 10 9 10 14 14 14 13 12 11 11 13 15 14 12 12 13 14 14 14 12 16 16 14 12 13 12 12 13 10 7 6 5 3 3 3 0 5 6 8 10 11 10 10 14 10 10 11 11
8 9 13 16 14 12 11 11 14 12 10 8 10 9 4 2 4 4 1 4 1 4 3 2 3 8 4 11 15 9 1 10 8 10 16 13 11 11 12 14 12 11 11 15 16 16 14 14 13 12 12 12 13 14 14 14 15 14 13 13 12 11 11 13 13 12 10 10 10 9 9 8 8 10 9 12 15 13 12 14 10 7 10 11 10 10
8 9 15 15 15 14 15 12 11 11 11 10 12 14 8 3 2 4 5 5 4 6 3 2 10 9 2 4 5 7 6 12 5 9 14 12 11 10 13 14 14 14 13 11 11 11 11 12 12 13 14 15 15 15 13 12 13 13 12 12 13 13 12 12 11 12 10 10 10 13 14 12 12 12 12 11 8 9 9 7 8 9 8 10 11 11
10 13 15 14 15 15 12 13 13 18 11 10 4 14 11 4 2 4 7 9 3 2 3 1 3 6 12 10 5 4 4 7 8 11 11 11 11 13 14 14 14 14 15 14 15 14 13 13 15 17 16 14 16 14 12 12 12 14 14 13 14 12 11 10 10 12 13 13 12 12 13 12 13 14 14 10 9 7 6 8 10 8 9 9 10 11
22 17 19 18 15 14 17 15 12 15 10 3 6 12 11 8 3 3 2 3 0 0 7 2 0 1 8 7 2 0 5 9 14 14 11 11 13 14 13 14 15 18 17 15 13 14 15 15 14 14 14 15 14 13 13 13 13 14 14 14 12 12 11 10 12 13 14 13 13 13 12 13 13 12 11 5 5 8 6 9 8 9 9 8 9 10
7 17 18 19 14 14 8 6 13 17 14 1 7 7 7 7 5 3 2 1 2 1 11 7 5 5 12 5 3 1 1 12 17 13 11 12 13 13 13 14 16 15 12 11 14 14 14 13 13 13 13 12 14 13 13 13 12 12 11 12 12 13 11 11 13 14 14 14 12 12 13 16 14 10 8 6 7 7 7 10 10 8 8 8 8 8
7 8 10 10 12 7 6 6 12 15 4 6 9 10 6 5 3 4 4 1 1 5 11 8 9 5 8 7 11 8 12 14 8 6 8 8 11 14 14 15 14 13 11 10 10 11 11 10 9 7 11 13 10 9 9 10 10 9 10 12 13 15 13 12 13 14 15 14 13 14 15 16 15 12 10 9 10 7 7 10 9 9 8 7 9 8
9 9 9 4 10 4 7 4 4 6 8 12 3 7 9 4 5 4 2 1 3 9 0 7 9 7 10 4 4 10 5 5 10 11 9 9 12 13 11 12 13 12 10 9 8 11 10 6 6 6 8 7 8 7 8 7 6 8 9 10 13 12 12 11 12 13 14 13 14 14 14 15 15 11 11 13 13 11 11 10 9 7 6 7 7 8
10 14 7 8 7 19 9 11 1 4 9 6 8 12 11 4 4 4 1 6 12 7 0 1 5 2 21 4 5 4 13 14 9 10 11 10 10 10 9 11 11 9 7 8 9 9 7 9 10 9 10 7 7 10 9 9 9 9 9 11 13 14 12 12 11 13 14 13 14 15 15 14 11 11 13 13 12 11 11 9 7 6 8 6 8 8
7 11 13 7 6 11 17 15 6 5 10 12 14 14 13 8 8 10 6 2 3 2 2 4 3 9 5 6 13 20 22 18 13 13 9 8 10 10 9 7 7 8 8 9 9 9 9 11 10 10 10 10 10 10 11 10 10 10 10 11 13 15 12 12 11 13 12 14 15 14 13 13 11 12 13 12 12 10 8 7 9 9 8 8 10 8
11 14 15 18 11 14 19 19 21 15 20 19 11 14 10 10 6 12 6 12 8 5 1 3 3 9 7 5 4 16 12 5 5 6 7 9 10 8 6 7 8 6 7 7 7 9 10 11 9 9 10 10 10 10 10 9 11 10 11 11 13 13 11 11 13 12 14 14 14 13 13 12 11 12 11 11 9 8 8 7 8 8 6 8 8 9
16 2 7 17 3 23 19 14 8 7 4 7 3 5 3 9 4 5 4 1 2 2 1 3 9 2 6 4 9 9 9 12 8 8 7 9 8 6 6 6 7 7 7 6 7 8 8 7 6 6 6 8 8 9 9 10 10 11 12 12 14 16 14 14 14 13 14 14 12 11 12 13 12 9 8 8 7 6 7 7 9 9 8 8 7 7
8 13 12 9 3 18 17 8 5 15 13 8 7 13 7 5 9 6 4 2 5 3 10 3 8 8 7 11 15 17 14 12 8 8 6 9 8 6 7 6 7 7 6 5 7 8 8 5 6 7 8 7 7 6 9 11 11 13 13 12 14 13 8 9 10 12 11 11 10 12 12 10 9 10 10 10 8 8 7 8 8 8 8 7 7 7
22 15 18 23 15 16 16 12 7 13 4 7 10 8 4 2 5 6 5 1 0 5 7 5 15 5 1 12 1 10 15 21 9 7 6 6 5 7 8 7 8 8 7 5 5 4 4 5 6 6 6 7 9 11 10 12 10 10 9 9 10 8 9 9 10 11 10 10 11 10 9 9 9 9 9 9 9 7 7 7 6 6 7 8 8 8
8 5 5 2 12 2 3 14 5 4 2 13 12 7 13 4 8 1 3 6 4 6 5 5 5 5 11 11 1 3 13 18 15 7 6 7 6 8 8 10 9 6 4 4 5 5 5 5 6 6 8 6 6 6 6 4 4 5 5 6 8 12 12 10 9 7 7 7 8 7 8 8 8 8 8 7 7 6 7 8 7 8 9 7 7 7
7 6 3 2 10 6 8 12 15 13 1 2 8 9 2 3 8 12 11 2 3 5 1 8 3 11 11 7 9 11 8 11 12 6 10 10 8 9 10 10 10 8 7 6 5 5 6 6 7 7 7 7 7 6 5 5 5 7 8 7 8 5 4 5 8 7 8 7 7 7 6 7 7 7 7 6 7 7 8 8 8 8 7 8 6 7
9 3 9 4 1 10 12 9 16 17 14 6 11 12 5 2 2 4 2 5 5 4 5 2 6 9 6 9 13 17 17 16 13 12 8 9 9 10 10 11 9 8 7 7 6 7 8 8 6 5 4 4 3 3 4 6 9 8 6 7 7 10 8 9 8 7 8 7 8 7 8 7 6 6 5 6 7 8 8 7 7 7 7 5 6 6
4 6 13 6 6 13 11 13 20 22 18 17 18 19 18 13 9 12 10 1 3 2 6 5 14 9 4 6 13 16 17 17 13 9 8 7 9 10 10 9 7 6 7 7 8 7 7 6 5 4 1 1 4 5 5 6 5 6 8 9 8 7 8 9 8 8 7 6 6 7 6 6 5 6 6 7 7 7 7 6 6 7 4 6 7 6
7 4 10 15 11 14 11 6 2 11 16 10 11 4 8 4 5 7 12 9 2 8 4 3 2 13 6 6 12 10 9 8 7 6 8 6 8 9 10 6 5 6 8 10 9 7 7 6 6 6 6 6 7 7 5 5 6 7 6 5 5 7 7 6 7 6 5 6 6 6 6 6 6 7 6 7 6 6 6 5 5 4 6 5 5 4
10 6 10 4 5 4 4 3 6 2 7 4 2 5 11 13 14 13 10 4 9 3 5 4 7 8 2 3 6 7 7 5 3 4 10 9 5 6 7 6 7 6 7 5 5 4 4 3 1 3 5 6 6 6 7 5 4 4 4 5 5 6 6 6 6 6 6 6 6 6 6 7 6 6 6 7 6 7 5 5 5 3 4 4 3 3
8 6 16 11 8 2 6 3 3 6 2 7 7 6 13 11 13 3 6 2 8 15 14 12 12 16 5 1 3 2 3 6 8 8 6 7 4 5 7 6 5 5 4 5 5 5 3 3 5 8 8 8 7 5 4 5 6 5 5 4 5 6 5 5 5 5 6 6 7 6 7 6 6 7 7 8 6 6 5 4 4 4 4 3 3 4
10 12 19 18 17 14 15 19 19 12 16 8 8 14 17 22 21 11 15 5 10 11 14 9 14 6 2 0 1 1 1 1 2 4 3 4 5 5 4 4 4 5 6 5 5 3 8 9 6 5 6 7 6 6 5 5 5 5 4 5 5 5 5 5 4 5 6 5 7 7 7 7 6 8 8 7 5 5 4 4 4 4 3 3 3 3
3 6 10 14 23 27 28 27 29 31 22 24 25 24 23 24 26 21 12 12 18 11 14 18 19 8 1 4 3 4 2 2 1 0 3 3 2 2 3 3 4 5 6 6 6 4 1 2 8 10 8 6 5 5 5 5 5 5 5 5 5 5 5 5 5 5 6 5 6 7 8 8 8 7 6 5 5 4 3 3 3 3 4 3 3 3
3 10 19 16 18 12 2 11 9 10 15 18 23 27 24 24 22 22 17 21 18 10 4 5 14 16 16 4 5 6 6 2 3 4 3 4 3 3 3 3 5 4 4 3 3 5 9 9 7 7 7 5 6 5 5 5 5 6 6 8 6 5 5 6 6 6 6 7 7 8 9 7 5 4 4 4 4 4 3 2 1 1 0 1 2 3
12 15 19 18 18 14 8 9 15 17 17 18 22 19 23 18 15 19 22 21 13 11 18 21 19 17 17 9 9 11 6 5 6 6 4 2 1 1 2 4 5 6 5 5 9 8 8 10 10 9 7 8 5 7 7 6 6 6 6 6 6 6 8 5 6 6 7 7 8 9 6 4 4 4 4 4 4 3 3 3 2 2 3 3 3 3
10 13 14 16 14 12 10 13 16 18 15 16 18 18 18 19 21 23 23 24 18 12 13 19 10 17 18 13 16 14 5 6 3 1 1 2 3 4 3 5 6 8 8 10 11 11 10 11 9 7 6 7 9 8 7 7 8 9 10 9 7 7 6 6 7 7 8 9 8 4 4 4 4 4 3 3 4 3 3 4 4 5 4 4 4 4
13 12 16 13 13 10 8 11 14 17 17 18 17 18 17 17 16 19 19 18 16 14 15 17 20 22 22 11 6 5 7 5 1 4 5 5 4 4 5 7 9 9 11 10 9 9 9 9 7 6 7 10 10 11 10 11 9 7 8 8 8 8 7 7 8 8 8 9 5 4 4 5 5 4 5 4 4 4 4 5 4 4 4 4 4 4
7 4 11 9 14 8 7 15 14 17 18 19 18 19 17 17 18 18 19 21 19 23 26 27 23 18 20 10 7 8 8 12 12 7 5 6 6 6 9 11 11 11 11 12 11 9 8 10 9 10 12 13 11 10 10 10 10 9 12 9 9 8 7 8 8 9 9 6 5 5 6 6 6 6 6 5 5 5 5 4 4 4 5 4 4 3
10 7 11 12 14 13 11 14 17 15 12 15 19 20 22 22 23 24 26 27 26 23 21 18 21 25 18 9 10 9 11 12 12 12 13 11 7 9 11 12 12 11 11 11 11 12 12 13 13 14 13 9 10 12 14 13 9 12 12 11 11 7 9 10 9 8 7 7 7 8 7 7 7 7 6 6 6 5 5 5 5 5 4 5 4 3
9 8 10 11 14 14 16 12 11 12 19 19 13 22 30 31 31 29 27 27 25 18 17 20 22 16 5 10 15 11 13 15 14 12 11 14 13 10 10 10 10 10 10 9 11 12 13 11 8 11 12 12 12 15 13 11 14 14 9 7 5 9 10 10 9 9 9 8 9 9 8 8 8 8 7 6 6 5 6 6 6 5 4 3 3 4
13 11 9 7 10 10 10 10 11 20 18 8 20 25 26 27 25 25 20 22 19 18 18 20 20 26 22 10 6 7 10 8 10 15 15 12 10 11 13 13 12 12 13 14 11 11 12 13 11 9 8 10 13 10 5 7 10 6 6 8 9 8 10 10 10 10 10 11 10 9 9 9 8 7 7 6 6 6 6 6 5 5 4 4 5 5
14 14 9 7 5 5 10 13 13 14 7 13 14 13 16 13 13 16 21 22 23 27 28 30 33 29 14 6 5 5 9 11 8 10 13 12 12 12 10 11 13 14 15 14 13 15 14 14 14 14 15 14 9 7 9 12 10 9 8 6 9 9 10 10 11 11 9 10 10 10 10 9 9 8 8 8 7 7 7 7 6 6 4 3 3 2
4 7 10 10 8 12 10 14 12 4 7 1 8 13 16 20 22 24 24 30 34 26 20 18 21 22 15 13 6 5 4 1 6 13 13 11 7 7 10 13 14 16 16 16 14 16 15 17 14 15 12 7 9 9 12 10 8 10 8 9 10 10 10 9 10 11 12 11 11 11 10 10 10 10 9 9 9 9 8 8 6 5 4 5 4 4
4 3 5 13 9 9 12 9 9 6 14 11 15 17 25 28 27 17 12 15 5 11 15 21 28 29 25 18 6 4 2 4 12 18 6 7 10 9 9 10 12 12 13 15 12 13 16 13 7 8 8 8 9 12 8 6 7 8 11 11 9 10 10 10 12 12 11 12 11 11 11 11 11 11 10 10 10 9 8 6 6 6 6 7 6 5
3 2 5 7 7 9 10 14 10 13 14 15 23 13 13 10 8 12 4 18 12 16 23 24 26 25 17 12 6 6 5 11 19 11 8 14 10 10 14 17 18 17 15 15 15 15 15 12 9 11 9 8 10 11 10 9 10 10 11 11 11 11 11 12 14 12 13 14 11 10 10 10 11 10 10 11 10 9 9 9 8 6 6 5 6 5
5 1 2 6 8 9 11 10 12 6 9 7 9 13 12 17 16 13 15 15 26 17 14 18 24 24 17 12 11 13 15 17 23 8 10 14 19 19 19 17 14 13 15 15 13 14 14 7 3 3 7 10 15 13 13 11 11 12 12 11 8 10 13 15 17 16 10 7 10 10 10 10 11 10 11 10 8 8 8 6 6 7 7 5 5 5
3 2 2 5 6 9 14 7 2 4 3 3 12 14 18 16 17 16 18 20 2 17 19 19 23 22 17 16 14 15 18 20 13 6 11 10 10 12 15 17 19 19 18 17 18 18 10 9 10 13 15 15 16 12 10 11 11 12 12 10 9 13 15 17 12 8 10 9 10 11 11 10 11 12 10 9 9 8 6 7 7 7 7 7 5 6
0 3 2 3 2 5 7 12 7 0 2 2 3 21 17 16 13 18 12 1 7 7 13 18 19 15 16 17 13 15 18 17 13 7 4 6 12 16 17 18 17 15 14 14 18 14 8 9 9 11 10 9 10 8 9 11 13 14 12 10 14 16 17 8 7 9 9 10 11 10 11 11 9 9 9 9 9 9 8 6 7 7 7 6 6 7
3 4 4 6 3 0 1 6 7 12 1 1 12 7 14 13 5 2 0 1 2 6 9 9 13 12 11 13 14 18 18 13 9 11 11 13 14 16 17 14 12 13 14 12 13 15 9 8 11 13 13 11 9 7 9 10 12 11 11 14 17 16 11 7 7 8 9 9 10 11 11 11 12 11 9 10 10 10 9 7 7 7 7 7 7 7
2 3 1 2 1 4 3 6 4 3 2 5 4 9 0 2 1 1 1 4 4 2 2 6 7 8 11 12 15 15 16 17 17 14 13 12 10 7 8 10 10 11 11 12 14 17 11 9 9 9 7 5 4 5 6 11 12 11 12 18 16 11 6 7 8 8 9 10 10 10 10 10 11 10 9 10 10 10 10 9 8 7 7 7 7 7
3 4 0 2 1 2 2 2 5 5 4 7 3 6 2 4 0 3 5 1 2 5 2 0 3 4 6 14 17 17 17 17 17 17 14 13 12 13 15 17 15 14 14 14 13 8 6 5 4 2 1 3 5 7 9 10 13 14 16 17 10 10 11 10 10 10 10 11 10 11 10 9 10 10 10 10 10 11 10 10 9 9 7 8 7 7
2 1 1 2 2 4 6 9 7 10 11 11 6 6 7 3 3 3 3 5 2 0 4 1 2 2 4 5 6 6 9 13 14 13 7 9 10 11 11 11 11 7 2 4 7 7 6 3 3 5 7 8 9 11 11 12 13 16 17 13 10 10 10 10 11 11 11 10 10 11 11 12 10 10 9 10 8 9 8 11 10 9 8 8 7 7
4 3 2 2 3 0 5 3 7 10 10 9 11 12 6 4 4 2 1 1 3 4 3 4 4 3 3 4 7 10 9 7 6 8 6 6 7 8 9 11 12 11 9 9 8 6 7 7 8 9 9 10 9 9 10 11 12 15 11 7 8 9 9 10 11 10 9 11 10 10 11 12 11 10 10 9 8 7 8 8 8 8 8 8 8 8
2 2 2 3 5 5 7 2 5 6 6 6 7 7 10 11 9 1 3 3 4 3 4 6 2 2 2 2 6 6 10 7 5 8 6 7 10 9 9 9 11 11 11 8 4 5 6 6 9 11 9 10 9 9 11 11 13 12 7 5 8 9 10 11 12 12 12 13 11 10 11 11 12 13 10 10 10 10 9 8 9 9 11 11 10 10
3 5 3 4 5 6 7 8 6 7 8 9 6 6 8 8 10 12 5 5 4 6 6 5 3 5 4 7 4 5 6 9 8 9 8 8 6 6 7 8 8 10 10 8 8 7 10 10 11 13 13 15 10 8 9 10 10 7 9 9 10 11 13 12 11 10 10 10 10 10 10 10 11 11 10 10 9 7 7 10 10 9 6 3 4 5
2 4 3 2 4 6 9 5 2 4 7 1 5 10 9 11 9 10 11 9 7 6 7 8 10 4 6 7 6 5 7 9 7 5 8 9 9 8 6 6 7 8 10 10 5 5 6 8 10 11 11 13 7 7 9 9 8 7 7 8 9 11 13 12 11 11 11 11 11 10 11 10 10 10 10 10 10 9 6 4 6 5 7 6 5 6
4 5 6 6 6 9 4 4 6 9 12 7 4 6 7 6 5 7 9 9 9 7 7 7 9 14 11 8 5 6 8 9 13 10 7 7 10 8 6 7 7 7 9 7 5 8 8 9 7 8 10 12 5 7 8 8 8 8 8 9 10 12 12 12 12 10 10 11 11 13 12 11 10 10 9 9 10 9 9 7 5 4 7 10 8 6
Wind_Direction
144 178 189 202 204 184 174 187 166 140 155 139 182 198 215 200 260 280 250 221 194 153 218 218 229 239 250 247 251 245 247 247 259 254 244 237 232 229 227 223 222 221 225 221 215 210 207 207 205 203 197 200 201 205 202 198 202 202 198 188 199 194 184 184 186 187 186 191 197 205 205 211 206 208 209 211 210 210 213 211 211 211 213 213 213 214
167 194 214 209 187 174 176 166 177 197 141 172 191 205 220 192 225 223 208 218 202 172 250 229 239 246 249 256 254 257 221 243 234 241 243 238 234 233 227 228 226 229 242 250 249 235 225 218 210 200 197 193 195 207 202 202 204 204 197 196 199 185 190 192 190 186 191 195 196 195 206 206 204 204 205 214 210 212 212 211 212 214 215 213 212 210
189 211 212 190 164 151 166 181 190 191 177 144 185 211 229 232 240 286 249 245 196 179 262 125 231 248 251 257 261 240 230 237 225 224 232 228 232 234 234 231 232 233 234 226 230 221 213 211 208 200 200 200 201 201 201 206 203 200 201 205 195 194 192 195 191 186 196 197 200 197 201 198 207 215 212 216 207 202 211 213 213 214 215 215 216 210
195 223 186 150 165 158 164 166 174 201 222 185 164 174 223 158 166 253 278 37 186 171 238 166 230 266 275 270 260 246 221 235 237 229 234 228 230 228 229 225 226 227 229 228 224 220 212 208 208 203 203 204 203 203 203 202 202 202 205 204 199 198 195 193 195 197 198 196 196 203 189 194 193 195 198 203 204 205 210 220 213 216 214 213 217 213
193 89 144 156 153 170 175 171 181 183 210 207 188 230 214 191 212 168 234 94 327 288 80 10 311 283 228 258 269 255 219 238 246 249 248 246 241 240 243 247 233 228 221 226 230 229 216 208 210 206 205 200 201 204 202 200 201 203 204 202 198 196 197 197 195 197 189 178 177 169 127 137 182 174 180 195 220 213 214 219 215 220 209 212 214 213
197 145 136 158 167 181 179 184 191 180 206 212 223 201 202 172 205 226 133 119 45 271 238 121 320 273 248 233 243 258 186 235 235 238 245 239 238 241 244 241 241 241 232 225 225 222 214 209 212 210 206 200 205 206 205 202 204 203 205 198 195 197 197 200 197 190 183 186 183 176 182 190 198 210 201 208 213 208 209 215 218 216 208 212 215 213
171 169 153 160 172 179 189 196 190 171 199 193 220 188 203 233 175 162 175 125 203 207 282 151 202 270 322 270 251 249 244 255 277 245 252 246 239 233 238 238 236 233 236 240 242 235 221 215 208 208 204 203 204 208 201 202 204 206 204 198 195 197 200 198 193 185 185 188 194 195 199 203 205 213 222 222 222 217 221 219 215 215 207 210 212 214
148 170 156 169 171 178 189 202 187 183 178 218 124 159 198 180 133 195 172 184 210 254 318 69 151 238 281 258 222 229 230 256 262 254 246 245 240 234 233 234 235 235 232 227 226 227 223 212 203 207 207 203 207 203 198 200 199 201 204 198 199 199 198 194 188 186 190 194 195 199 206 208 214 215 225 212 221 220 208 212 219 213 214 209 212 214
168 171 167 170 175 183 200 197 166 177 181 216 150 155 181 162 167 183 180 181 300 13 276 228 45 238 247 271 316 27 248 262 254 247 245 237 237 238 236 233 232 232 229 221 221 223 221 215 212 211 206 207 204 200 199 198 198 200 202 201 198 198 194 193 189 190 195 198 196 200 203 214 222 223 230 213 214 217 211 223 218 218 219 216 216 217
168 169 172 169 176 199 190 155 159 175 192 218 122 84 89 79 70 80 127 107 328 56 243 185 184 210 271 228 233 358 236 252 246 241 242 243 243 242 240 238 236 236 234 226 224 223 222 220 215 208 208 203 205 202 201 201 198 200 196 196 194 202 196 193 193 193 196 197 195 201 207 214 221 217 224 203 217 215 205 225 223 221 220 219 221 221
126 164 154 165 188 179 138 159 167 181 163 119 105 107 66 45 69 54 61 93 45 260 245 171 201 170 286 229 206 179 223 233 265 252 237 239 244 248 243 240 242 240 231 224 224 229 228 223 218 204 208 210 206 205 202 204 201 196 193 194 198 204 200 193 194 192 197 196 197 206 209 214 219 212 210 215 224 212 210 222 222 218 220 216 221 218
143 138 157 217 164 102 126 108 13 146 131 126 110 110 83 23 18 36 357 32 188 249 196 182 161 173 221 284 229 221 240 205 212 245 240 237 237 240 241 243 245 242 233 222 216 228 229 225 223 208 224 219 210 200 204 202 194 195 196 194 202 208 203 197 196 195 200 197 204 211 211 215 218 207 209 216 222 212 217 218 220 214 217 222 220 221
159 174 170 171 173 143 161 144 349 112 152 136 125 135 153 171 149 221 104 209 213 223 154 55 142 93 236 242 280 239 236 241 229 229 230 229 244 244 247 246 245 243 234 220 217 220 216 211 210 208 218 204 203 204 201 197 190 193 195 196 200 209 203 202 197 198 201 200 208 210 213 219 213 211 215 219 223 215 218 215 218 208 219 215 222 219
192 174 176 158 145 183 153 175 154 157 191 175 168 168 172 157 190 203 191 343 335 295 292 115 86 257 284 287 224 254 252 239 232 234 233 234 240 245 249 257 254 241 224 219 214 212 210 209 209 207 207 202 203 202 199 195 193 195 197 199 202 212 200 201 198 202 200 207 212 211 214 217 209 215 215 219 221 215 215 209 216 215 215 216 221 217
152 187 197 155 199 166 180 190 183 180 176 193 185 181 185 172 174 197 161 202 211 195 227 279 85 237 147 251 238 239 262 305 275 249 229 230 242 254 276 281 277 260 237 221 213 211 211 212 204 202 202 203 204 202 199 196 200 195 201 200 206 213 205 199 203 202 205 210 211 211 214 215 210 217 215 222 220 210 208 209 213 218 213 219 220 217
190 230 163 180 142 167 186 192 152 99 134 208 184 58 174 210 133 179 193 143 131 141 266 211 208 193 191 269 288 242 265 276 265 256 257 251 240 247 265 262 250 242 235 215 216 223 227 217 208 208 207 207 204 203 201 200 198 198 204 201 206 209 205 200 203 205 207 212 208 209 212 215 213 216 216 223 214 213 201 205 209 217 214 217 218 216
165 214 159 176 148 175 184 144 167 152 191 179 150 204 195 93 98 101 55 69 85 49 247 149 295 276 307 284 258 284 283 260 246 260 233 248 245 231 234 240 248 239 232 219 217 220 222 219 219 211 209 208 204 199 202 203 199 201 202 203 209 214 209 204 206 208 209 212 207 212 213 211 208 210 213 216 211 206 203 207 210 213 216 216 212 215
174 178 172 171 180 188 175 158 173 189 119 130 196 189 90 96 105 124 173 8 122 191 260 157 228 265 60 274 286 230 242 256 238 239 251 244 244 232 229 230 235 230 226 228 237 241 229 215 212 214 218 209 202 201 204 209 205 207 206 202 204 201 199 203 200 206 205 205 209 213 211 211 206 209 214 212 214 202 203 213 214 215 222 217 215 212
137 79 321 248 165 179 143 154 183 226 335 181 184 163 159 207 207 249 125 218 174 225 257 267 252 265 207 237 319 185 229 255 257 234 261 262 239 233 235 236 241 254 275 261 237 232 231 219 218 214 215 217 218 219 216 208 183 191 198 199 197 202 205 199 196 198 203 202 207 204 205 201 204 206 209 210 207 195 204 210 209 213 219 220 215 214
179 127 143 283 165 161 156 170 195 186 323 28 97 180 200 114 216 171 199 165 122 242 326 282 72 244 189 210 177 255 245 238 254 239 227 232 222 217 229 232 226 221 227 232 238 238 232 229 223 215 215 215 216 213 206 184 179 196 199 192 206 209 193 188 196 193 200 202 197 204 199 208 204 201 198 194 191 199 206 209 206 213 216 217 208 212
177 134 165 153 109 141 187 194 192 181 168 150 174 184 211 145 282 114 43 140 169 176 203 269 297 258 248 193 179 217 232 243 233 233 223 221 221 219 221 223 222 212 214 222 225 227 228 231 235 239 236 232 221 202 186 186 196 199 185 202 196 194 197 200 201 191 206 191 205 197 201 199 193 197 192 189 194 199 207 207 207 210 215 203 215 204
94 196 168 133 175 195 186 193 192 184 181 184 186 192 184 156 136 169 227 78 115 128 230 179 253 265 263 182 198 207 221 227 235 223 232 212 219 221 225 229 211 204 220 218 223 219 226 234 236 231 226 201 182 196 195 206 193 196 201 204 197 199 203 197 199 201 202 199 194 198 200 198 193 189 186 191 194 200 198 200 199 202 186 198 217 195
151 143 138 172 184 188 189 180 1 183 189 198 189 189 166 138 140 172 202 215 156 221 113 167 296 270 230 197 209 219 226 235 234 207 245 220 214 226 234 227 221 210 205 213 218 222 223 219 208 192 192 195 198 201 202 200 200 204 204 195 199 193 210 195 200 197 189 190 194 200 193 184 191 185 189 190 192 192 193 196 194 178 186 200 210 205
68 109 111 45 33 6 22 17 41 20 153 91 102 146 163 185 187 195 204 186 186 139 211 239 247 255 285 202 227 236 256 275 305 205 227 240 201 231 245 244 226 228 242 246 245 257 253 240 200 163 195 213 219 211 208 207 211 214 206 204 189 203 202 197 194 185 183 188 193 187 178 188 185 177 183 189 193 193 194 186 189 178 183 186 188 190
151 228 147 151 153 119 9 39 204 348 186 200 174 187 184 181 191 170 103 86 188 210 198 187 226 251 246 296 265 274 293 235 235 245 234 255 252 228 232 238 234 234 246 240 234 227 211 179 189 205 205 210 215 217 210 211 211 205 213 199 203 212 203 198 185 175 183 176 179 182 180 188 180 183 190 195 189 194 179 189 181 179 174 163 181 209
199 159 160 168 166 164 172 179 195 182 192 191 192 184 192 186 184 162 204 166 214 217 184 194 236 228 65 254 262 263 356 252 254 262 253 207 228 235 245 234 219 202 206 211 208 187 204 206 208 219 223 221 217 207 207 218 216 212 211 215 209 207 205 206 178 180 170 177 173 186 192 190 187 196 197 194 190 190 181 177 182 179 176 177 195 198
140 170 211 194 183 186 186 192 190 177 173 190 192 188 192 194 191 195 192 201 211 210 188 210 226 231 241 225 251 268 271 184 201 205 195 220 248 240 224 228 216 209 204 203 208 223 253 240 222 221 222 222 217 209 211 212 217 216 216 227 222 215 201 195 182 179 174 182 188 190 206 202 204 195 190 185 181 167 155 157 160 169 183 178 190 197
103 175 203 194 212 220 43 43 65 156 182 186 182 199 194 195 191 191 192 213 210 196 296 274 245 243 231 237 267 259 261 270 271 270 258 245 242 221 217 245 263 271 279 279 265 237 222 226 230 232 233 230 228 218 221 214 212 209 210 219 217 209 202 195 184 182 185 185 200 207 210 208 196 189 181 167 158 161 162 168 181 175 160 128 178 206
170 193 196 194 203 201 132 133 150 179 195 195 199 193 197 189 186 198 213 225 206 200 221 224 223 231 241 202 235 241 213 207 213 226 229 186 135 168 198 226 234 238 248 244 238 230 230 229 227 225 220 221 214 218 217 211 218 221 227 227 214 202 207 189 182 189 190 195 206 214 199 182 184 169 164 164 169 188 205 217 235 247 237 221 224 204
167 214 196 191 192 184 167 158 166 176 187 199 204 201 196 190 196 201 214 221 217 219 234 253 251 245 247 218 209 222 216 215 222 231 115 150 206 201 202 237 238 237 233 231 231 227 227 231 231 228 219 220 214 214 207 209 213 212 211 217 209 205 202 172 196 189 199 207 214 203 180 179 175 172 165 175 194 203 197 202 205 204 207 211 208 215
185 200 174 172 189 188 190 170 176 177 179 200 199 200 195 194 201 211 220 229 229 241 250 252 246 248 245 222 187 194 207 244 246 214 197 215 215 194 206 228 236 233 235 237 241 240 236 238 236 228 223 223 215 209 205 210 212 207 216 216 205 204 193 184 192 200 203 215 206 194 182 187 191 176 194 195 183 185 189 194 188 189 202 209 203 202
198 198 149 161 185 190 205 182 181 175 186 195 195 193 188 186 201 207 216 216 207 215 221 232 241 247 257 218 168 191 189 213 227 240 257 246 221 206 214 227 229 234 235 237 238 241 243 236 225 219 222 221 214 207 206 209 208 197 215 205 205 199 177 190 198 201 208 205 189 191 193 193 187 189 193 181 185 183 189 178 180 188 190 186 191 202
181 154 161 165 189 194 194 187 181 173 181 205 202 187 187 198 203 206 214 214 214 208 217 224 239 235 238 114 187 206 185 202 210 216 227 235 224 207 216 223 230 235 235 233 233 233 234 229 218 217 223 218 209 207 214 203 187 205 207 199 205 160 183 195 197 198 201 195 192 197 193 188 187 190 188 192 182 182 175 180 187 189 178 195 195 154
177 171 172 165 191 188 182 183 156 166 202 207 172 190 191 196 199 204 210 215 216 204 218 221 235 242 105 188 211 202 200 203 202 218 212 216 220 217 226 231 234 238 242 239 231 229 236 235 222 221 221 215 215 212 211 188 193 206 196 184 151 178 189 189 196 195 200 195 199 194 190 186 185 188 187 180 177 176 181 183 192 195 192 168 150 173
180 172 179 179 188 187 142 126 174 208 212 162 194 201 197 202 201 208 219 223 220 219 231 243 244 245 223 219 196 194 200 212 212 215 224 223 216 216 220 224 232 238 242 242 238 235 237 235 221 219 223 224 221 215 180 197 212 184 158 169 176 184 182 194 193 199 200 199 197 188 189 186 185 184 178 178 178 181 186 187 192 187 181 174 177 177
181 179 162 192 157 77 158 176 198 219 165 206 209 188 198 200 203 208 231 229 218 213 212 221 229 236 233 217 206 198 183 215 232 236 228 218 203 206 211 222 231 234 239 237 227 234 230 232 216 206 215 219 202 190 195 209 191 178 191 163 181 182 191 190 197 205 196 201 196 192 189 182 181 178 177 179 180 184 188 191 185 184 174 160 167 161
300 184 180 183 182 182 169 184 206 90 175 113 122 186 172 191 198 197 210 222 216 215 213 232 246 249 241 230 165 181 197 153 254 250 226 208 208 214 204 218 221 228 228 234 221 229 227 232 212 208 212 204 184 189 205 206 176 184 164 174 190 183 189 188 202 207 202 204 195 191 185 182 179 180 180 179 181 185 186 184 187 180 163 159 173 173
347 216 214 181 206 185 169 185 195 181 210 198 218 197 192 199 204 205 220 261 227 206 207 215 229 234 229 224 178 180 100 237 259 252 204 160 197 206 224 234 239 237 235 235 234 230 236 240 211 215 206 199 188 202 201 165 177 180 184 189 182 180 188 191 211 209 202 205 198 190 183 181 180 180 179 181 187 184 183 183 180 177 177 172 170 187
84 135 324 228 170 180 187 187 193 200 221 201 209 195 191 188 114 80 175 250 230 196 205 213 228 236 234 218 195 147 148 232 246 251 141 172 189 197 212 226 226 228 230 230 228 232 240 240 201 207 200 192 197 209 192 175 169 179 200 198 187 184 184 200 214 205 201 204 190 184 182 178 179 179 178 185 186 179 181 184 182 173 175 177 173 179
115 39 319 239 208 192 176 188 200 204 220 218 143 172 151 125 111 126 214 238 239 199 202 206 223 229 218 211 179 189 205 228 240 218 188 181 186 198 206 219 225 232 238 239 241 234 239 235 174 194 192 199 214 205 185 173 173 188 200 205 186 178 198 207 213 208 194 172 172 177 176 179 179 179 179 183 178 181 180 170 167 171 171 172 167 159
129 120 159 262 223 190 189 191 41 296 292 231 161 134 136 126 140 188 210 233 228 152 199 197 218 220 211 211 189 211 221 225 236 173 201 200 200 214 218 220 221 221 225 232 241 240 224 219 198 205 203 207 211 204 175 168 175 193 204 192 178 204 209 215 204 164 178 173 169 171 176 178 183 180 179 175 175 174 170 173 171 165 170 166 163 155
71 135 178 164 234 220 205 193 199 202 238 146 117 142 137 134 193 201 222 90 149 181 189 191 207 207 205 208 201 219 228 227 232 207 189 192 201 215 218 221 225 231 231 232 238 241 217 217 214 221 225 223 218 200 169 175 186 199 197 187 202 211 220 203 165 172 162 171 174 172 172 178 180 178 174 167 163 171 175 177 166 165 167 165 162 161
205 138 193 165 200 52 9 204 160 203 32 45 148 138 161 171 227 258 74 4 333 191 168 194 199 208 187 211 210 217 232 237 228 219 207 209 213 219 225 226 227 228 233 240 253 251 209 211 216 220 219 217 211 188 178 176 196 202 198 203 211 214 211 170 169 166 169 165 171 177 177 177 174 173 172 174 171 168 172 168 166 165 164 165 165 164
241 98 241 197 200 164 203 197 192 66 336 303 169 155 52 107 231 322 100 55 357 36 211 173 205 190 184 200 205 217 226 231 235 227 226 227 230 253 263 250 235 233 239 237 233 243 234 219 226 228 229 231 212 182 179 180 201 204 204 217 214 206 165 163 168 162 166 175 175 174 175 175 174 171 172 173 168 168 164 167 166 161 169 169 167 170
220 157 287 91 313 142 211 232 284 293 266 284 319 268 215 221 165 108 75 87 10 357 145 27 265 263 226 202 203 206 216 225 230 228 220 223 219 222 231 238 230 222 227 236 246 273 312 286 285 280 261 207 188 189 192 197 201 209 213 223 200 189 176 175 165 169 177 179 177 173 172 167 173 173 173 173 170 168 167 164 165 167 176 170 174 176
7 105 141 101 275 229 251 243 265 289 290 300 277 237 263 213 203 86 46 355 312 288 181 201 233 227 239 256 272 269 227 228 226 242 221 228 226 234 242 264 276 276 322 313 287 286 267 248 211 198 214 218 206 201 201 204 201 208 220 214 193 184 175 165 167 176 181 175 173 173 165 167 168 171 171 171 177 176 172 168 171 173 171 177 181 182
235 197 117 130 266 76 297 220 205 247 278 281 284 291 276 239 249 111 155 184 282 314 259 218 197 222 239 218 214 229 248 264 274 263 254 254 252 248 241 243 258 260 253 246 237 234 257 255 259 242 222 226 217 208 212 211 215 220 223 191 177 168 163 166 172 174 171 175 171 166 169 171 173 169 170 171 172 171 169 167 172 171 172 182 182 184
309 224 198 200 194 186 243 175 220 218 231 280 305 306 310 313 307 286 174 200 237 251 271 301 335 305 137 187 202 225 252 265 244 259 254 240 237 237 237 240 248 263 259 247 229 209 238 243 248 259 255 245 228 207 214 213 218 220 208 173 163 161 162 169 175 177 179 176 171 174 176 178 172 169 170 176 175 172 171 178 179 180 184 187 186 183
203 119 219 185 200 242 264 270 289 326 302 272 266 286 280 280 289 298 286 279 299 311 298 255 194 259 237 249 192 207 240 246 218 229 237 250 253 245 233 231 241 248 266 274 249 211 217 221 228 234 237 244 233 212 218 221 223 205 189 181 169 163 169 177 177 173 169 168 168 175 179 178 176 178 173 171 177 183 183 179 181 181 176 176 168 189
67 170 226 125 227 233 229 245 139 267 277 244 196 223 240 259 274 284 299 310 300 291 285 304 297 228 211 249 261 226 240 269 251 204 235 245 253 259 249 234 230 236 251 255 269 253 247 245 235 241 239 246 227 207 215 220 215 202 193 174 175 171 174 173 168 170 174 175 177 176 176 177 177 175 173 175 174 165 140 112 143 162 164 167 158 172
225 216 187 202 208 246 215 213 192 230 254 245 198 223 219 233 233 253 269 273 289 287 279 292 305 310 309 289 236 231 249 253 276 271 258 255 261 256 233 235 239 239 242 243 241 253 241 248 239 244 252 249 208 210 210 211 201 193 192 185 180 180 180 168 172 179 178 177 185 183 178 173 174 177 174 174 171 167 158 137 99 91 154 156 144 143